[[{"header":{"parameterUnit":"m.s-1","parameterCategory":1,"la1":30.2992,"la2":30.254,"lo1":-89.0895,"lo2":-89.0443,"dy":0.0025,"dx":0.0025,"nx":19,"ny":19,"refTime":"2026-03-28T09:00:00:Z","depth":0,"parameterNumber":2,"parameterNumberName":"U-component_of_WINDS"},"data":[0,0,0,-2.5266,-2.5269,-2.5373,-2.5373,-2.5514,-2.5516,0,0,0,0,0,0,0,0,0,0,0,-2.5241,-2.5243,-2.5266,-2.5269,-2.5373,-2.5373,-2.5514,-2.5516,0,0,0,0,0,0,0,0,0,0,0,-2.5241,-2.5242,-2.5244,-2.5269,-2.5373,-2.5373,-2.5514,-2.5432,0,0,0,0,0,0,0,0,0,0,-2.533,-2.5313,-2.5242,-2.5244,-2.527,-2.5372,-2.5373,-2.5428,-2.5437,-2.5471,0,-2.5503,0,-2.5512,-2.5526,-2.5526,0,0,0,-2.5264,-2.5305,-2.5328,-2.5244,-2.5271,-2.5372,-2.5325,-2.5433,-2.5444,-2.5483,-2.5505,-2.551,-2.5514,-2.5527,-2.5527,-2.5738,-2.5739,0,0,-2.5259,-2.5263,-2.5321,-2.5335,-2.532,-2.5321,-2.5328,-2.5439,-2.5463,-2.5506,-2.5513,-2.5516,-2.5528,-2.5529,-2.5736,-2.5738,0,0,0,-2.5245,-2.526,-2.5279,-2.5329,-2.5347,-2.5324,-2.5332,-2.5458,-2.5464,-2.5515,-2.5518,-2.5529,-2.553,-2.5735,-2.5737,-2.5801,0,0,0,-2.5242,-2.5252,-2.5277,-2.5281,-2.5346,-2.5405,-2.5349,-2.5457,-2.5469,-2.5517,-2.5529,-2.5532,-2.5734,-2.5736,-2.5797,-2.5831,0,0,0,-2.5233,-2.5251,-2.5268,-2.5281,-2.5326,-2.5403,-2.5415,-2.5459,-2.5471,-2.5526,-2.5532,-2.5733,-2.5736,-2.5792,-2.5825,-2.5888,0,0,0,-2.5225,-2.5324,-2.5269,-2.538,-2.5325,-2.5441,-2.5414,-2.55,-2.5555,-2.5529,-2.5734,-2.5737,-2.5791,-2.582,-2.5884,-2.5944,-2.5969,0,0,-2.5352,-2.5339,-2.5404,-2.5358,-2.5485,-2.5425,-2.5561,-2.5607,-2.5607,-2.5694,-2.5699,-2.5798,-2.5824,-2.5887,-2.6105,-2.6125,0,0,0,-2.5446,-2.5493,-2.5526,-2.5578,-2.5615,-2.5649,-2.5672,-2.5689,-2.5762,-2.5653,-2.5837,-2.5853,-2.589,-2.5918,-2.5935,-2.5967,-2.575,-2.5749,-2.5749,-2.5635,-2.563,-2.5737,-2.5744,-2.5795,-2.5817,-2.5857,-2.5883,-2.5864,-2.5907,-2.5934,-2.6066,-2.61,-2.6112,-2.6145,-2.5963,-2.5963,-2.5964,-2.5964,-2.5823,-2.5889,-2.5858,-2.5952,-2.5945,-2.6023,-2.6047,-2.603,-2.6101,-2.6046,-2.6079,-2.6021,-2.6135,-2.6163,-2.5969,-2.5968,-2.5967,-2.5967,-2.5966,-2.5948,-2.5978,-2.5996,-2.6069,-2.6126,-2.6129,-2.6198,-2.6189,-2.6181,-2.6212,-2.6239,-2.6238,-2.6237,-2.6225,-2.6226,-2.6226,-2.6227,-2.6227,-2.6227,-2.6071,-2.6089,-2.6149,-2.6194,-2.6225,-2.6265,-2.6287,-2.6317,-2.6348,-2.6336,-2.6336,-2.6312,-2.6146,-2.6105,-2.6234,-2.6233,-2.6232,-2.6232,-2.6231,-2.6267,-2.622,-2.6313,-2.6345,-2.6396,-2.6453,-2.6439,-2.6501,-2.6524,-2.6558,-2.6526,-2.6404,-2.6391,-2.6377,-2.6344,-2.6527,-2.6527,-2.6527,-2.6527,-2.6373,-2.6364,-2.6456,-2.6507,-2.6555,-2.6551,-2.6655,-2.6671,-2.6681,-2.6694,-2.6666,-2.662,-2.6606,-2.66,-2.6582,-2.6551,-2.6782,-2.6782,-2.6783,-2.6493,-2.6488,-2.658,-2.6588,-2.6627,-2.666,-2.6757,-2.6815,-2.6816,-2.6793,-2.6705,-2.6694,-2.6619,-2.6595,-2.6573,-2.6545,-2.6487,0,0]},{"header":{"parameterUnit":"m.s-1","parameterCategory":1,"la1":30.2992,"la2":30.254,"lo1":-89.0895,"lo2":-89.0443,"dy":0.0025,"dx":0.0025,"nx":19,"ny":19,"refTime":"2026-03-28T09:00:00:Z","depth":0,"parameterNumber":3,"parameterNumberName":"V-component_of_WINDS"},"data":[0,0,0,-9.0916,-9.092,-9.1075,-9.1075,-9.1295,-9.1297,0,0,0,0,0,0,0,0,0,0,0,-9.0886,-9.0888,-9.0916,-9.092,-9.1075,-9.1075,-9.1294,-9.1297,0,0,0,0,0,0,0,0,0,0,0,-9.0885,-9.0888,-9.089,-9.0921,-9.1075,-9.1076,-9.1294,-9.1168,0,0,0,0,0,0,0,0,0,0,-9.1014,-9.1003,-9.0887,-9.089,-9.0922,-9.1075,-9.1076,-9.1162,-9.1176,-9.1234,0,-9.1294,0,-9.1299,-9.1313,-9.1314,0,0,0,-9.0907,-9.0991,-9.1019,-9.0891,-9.0923,-9.1075,-9.1001,-9.117,-9.1186,-9.1253,-9.1297,-9.1304,-9.1303,-9.1315,-9.1316,-9.1704,-9.1706,0,0,-9.0898,-9.0922,-9.1008,-9.103,-9.1012,-9.0996,-9.1006,-9.1179,-9.1226,-9.1297,-9.1309,-9.1307,-9.1316,-9.1318,-9.1702,-9.1705,0,0,0,-9.0882,-9.0917,-9.0939,-9.1022,-9.1049,-9.1001,-9.1013,-9.1218,-9.1224,-9.1311,-9.1309,-9.1318,-9.1321,-9.1699,-9.1703,-9.1848,0,0,0,-9.0877,-9.0907,-9.0936,-9.0952,-9.1046,-9.1136,-9.1049,-9.1212,-9.1231,-9.1308,-9.1318,-9.1323,-9.1696,-9.1701,-9.1838,-9.1912,0,0,0,-9.087,-9.0906,-9.0935,-9.0953,-9.1021,-9.1133,-9.1148,-9.1216,-9.1231,-9.1314,-9.1324,-9.1695,-9.17,-9.183,-9.1898,-9.2022,0,0,0,-9.0869,-9.106,-9.0938,-9.1149,-9.102,-9.1223,-9.1147,-9.1295,-9.1384,-9.1319,-9.1697,-9.1702,-9.1827,-9.1889,-9.2013,-9.2132,-9.2184,0,0,-9.1123,-9.1091,-9.1214,-9.1109,-9.134,-9.1197,-9.1448,-9.1505,-9.1489,-9.1632,-9.1641,-9.1842,-9.1897,-9.202,-9.2464,-9.2506,0,0,0,-9.1302,-9.1391,-9.1447,-9.1535,-9.1585,-9.1633,-9.1649,-9.167,-9.1791,-9.1569,-9.1919,-9.1951,-9.2022,-9.2078,-9.2113,-9.2172,-9.1729,-9.1729,-9.1728,-9.1695,-9.1667,-9.1868,-9.1859,-9.1944,-9.196,-9.2025,-9.2055,-9.2,-9.2083,-9.2126,-9.2399,-9.2465,-9.2491,-9.2553,-9.2185,-9.2186,-9.2186,-9.2187,-9.2064,-9.2185,-9.2108,-9.2276,-9.2244,-9.2382,-9.2403,-9.2359,-9.2482,-9.2364,-9.2425,-9.23,-9.2537,-9.259,-9.2197,-9.2195,-9.2194,-9.2193,-9.2192,-9.2319,-9.2372,-9.2396,-9.252,-9.2618,-9.2599,-9.2722,-9.2687,-9.2654,-9.2715,-9.2756,-9.2753,-9.2746,-9.2737,-9.2738,-9.2739,-9.2739,-9.274,-9.2741,-9.2574,-9.2597,-9.2706,-9.2776,-9.2827,-9.289,-9.2907,-9.2955,-9.2999,-9.2964,-9.2964,-9.29,-9.2566,-9.2484,-9.2755,-9.2753,-9.2751,-9.2749,-9.2748,-9.296,-9.2868,-9.3037,-9.3089,-9.3166,-9.3265,-9.3219,-9.3321,-9.3355,-9.3416,-9.3339,-9.3098,-9.3062,-9.3034,-9.2965,-9.3345,-9.3345,-9.3345,-9.3345,-9.3176,-9.3155,-9.332,-9.3405,-9.3484,-9.346,-9.3648,-9.3662,-9.3661,-9.368,-9.3619,-9.3524,-9.3497,-9.3477,-9.3439,-9.3375,-9.385,-9.3851,-9.3851,-9.3411,-9.3396,-9.3566,-9.3567,-9.3625,-9.3675,-9.3851,-9.3948,-9.3927,-9.3871,-9.3693,-9.3672,-9.3519,-9.3471,-9.3412,-9.3354,-9.3234,0,0]}]]